Wind_Speed
29 28 28 27 26 25 25 24 24 24 23 23 23 23 22 22 23 23 23 23 23 23 23 23 24 24 25 25 25 25 24 24 24 24 24 25 25 25 25 25 25 25 25
30 29 29 29 28 27 27 26 26 26 25 25 25 25 25 24 24 24 25 25 24 25 25 25 26 26 26 26 26 26 26 26 26 26 26 26 27 27 27 27 27 27 27
31 31 30 30 30 30 29 28 27 27 27 27 27 26 26 26 26 26 26 26 26 26 26 27 27 27 27 28 28 27 27 27 27 28 28 28 28 28 29 29 28 28 28
32 32 32 31 31 31 31 30 29 28 28 28 28 27 28 27 27 28 27 27 27 27 28 28 28 28 28 28 29 28 28 28 29 29 29 29 29 30 30 30 30 31 31
33 33 33 33 33 32 32 32 31 30 29 29 29 29 29 29 29 30 29 29 29 29 29 29 29 29 29 29 29 29 30 30 30 30 31 31 31 31 31 32 32 32 33
33 33 34 34 34 34 33 32 32 31 30 30 30 30 31 31 31 31 31 31 31 31 31 31 31 31 31 31 31 31 32 32 31 32 32 32 33 33 33 34 34 34 34
33 33 34 35 35 35 34 34 33 32 32 32 32 32 32 32 32 33 33 33 32 32 32 32 32 32 33 33 33 33 33 33 33 34 34 34 35 35 35 35 36 36 36
35 34 34 35 36 36 35 36 35 34 33 34 34 34 34 34 33 33 34 34 33 34 34 34 34 34 34 35 35 35 35 35 35 36 36 36 36 36 36 37 37 37 37
36 35 34 34 35 35 36 37 37 36 36 36 35 36 35 36 35 35 36 36 36 36 37 38 37 37 37 37 37 37 37 37 37 38 38 37 37 38 38 38 39 39 38
37 36 36 35 36 36 36 37 37 38 37 37 37 37 37 38 38 37 37 38 38 39 39 39 39 39 39 39 38 38 38 39 39 39 39 39 39 39 39 39 40 40 40
36 36 36 36 36 36 37 38 38 39 39 38 38 39 39 39 39 39 39 39 39 40 41 41 40 40 40 40 39 39 39 39 40 40 40 40 40 40 41 41 41 41 41
36 36 36 37 37 37 37 38 39 39 40 40 40 40 41 40 41 41 41 40 40 41 42 42 42 41 41 41 41 40 40 40 40 41 41 41 42 42 42 42 42 42 42
37 37 37 37 37 38 38 37 38 40 41 41 42 42 42 42 41 42 42 41 40 41 41 41 42 42 41 41 41 41 41 41 41 42 43 43 43 43 43 43 43 43 43
37 37 38 38 38 38 38 39 39 40 41 41 42 42 42 43 43 43 43 42 42 42 42 41 42 42 42 42 43 43 43 43 43 44 44 45 46 45 45 44 44 44 44
37 38 39 39 39 39 39 40 41 41 41 42 42 43 43 44 43 44 44 44 44 43 43 43 42 44 44 45 45 45 45 46 46 46 47 47 47 46 46 46 46 46 45
37 39 40 40 40 40 40 40 41 42 43 43 43 43 44 45 46 46 45 46 46 46 46 45 45 45 46 47 46 47 47 47 48 48 48 48 48 48 48 48 48 47 47
39 39 38 38 39 40 41 42 42 43 44 44 45 45 46 47 47 48 47 47 47 47 47 47 47 47 47 48 49 48 48 49 49 49 49 50 50 50 50 49 49 49 50
40 39 39 39 40 42 43 43 44 45 45 46 47 47 48 48 48 49 48 48 48 48 48 48 48 49 49 49 50 50 50 49 50 51 51 51 51 51 52 52 52 52 52
40 41 41 41 42 43 44 45 45 46 47 48 49 49 49 49 49 49 49 49 49 49 49 49 49 50 51 51 51 52 52 51 52 52 52 53 53 53 53 54 54 54 54
40 41 41 42 43 44 45 46 47 48 48 48 48 48 49 49 49 50 50 51 50 50 51 51 50 51 52 52 53 53 53 54 54 54 54 55 55 55 55 55 55 56 55
40 41 42 42 43 44 46 47 48 48 48 48 49 49 49 48 49 49 50 51 51 51 51 52 51 51 52 53 54 54 54 55 55 56 56 56 56 56 56 57 57 57 57
42 42 43 43 44 45 45 47 48 49 49 49 49 49 49 49 50 50 50 51 52 52 52 52 52 52 52 53 54 54 54 55 56 57 57 56 57 57 57 58 58 58 57
43 44 44 45 45 46 46 47 47 48 49 49 49 49 49 49 49 50 51 52 52 52 52 52 52 52 53 53 54 55 55 56 56 57 57 56 57 57 57 57 57 57 57
45 45 45 45 45 45 45 46 46 47 48 48 48 49 49 49 49 50 51 51 52 53 53 53 54 54 54 54 55 56 56 56 56 57 58 57 56 56 56 56 57 57 57
45 45 46 46 46 46 46 46 46 47 47 48 48 48 49 50 50 51 51 52 53 54 54 54 54 54 55 55 55 56 56 56 56 55 56 57 56 56 56 55 55 56 57
45 45 46 46 46 46 46 46 47 47 47 48 48 48 48 49 50 51 52 52 52 53 53 53 54 54 55 55 55 55 55 55 55 54 54 55 56 56 56 54 54 55 55
Wind_Direction
240 240 241 242 242 244 247 249 251 252 255 259 261 263 265 269 271 273 276 280 281 280 281 283 283 283 283 284 285 285 286 286 287 287 287 287 288 289 290 290 290 290 289
241 241 242 244 246 247 249 251 252 253 255 258 260 264 267 269 271 273 275 277 279 280 280 282 283 283 283 283 284 283 283 284 285 285 286 286 287 287 288 289 289 289 289
241 241 243 244 247 249 250 251 252 254 256 259 260 263 266 269 271 273 275 276 278 280 281 281 283 283 283 282 283 282 282 284 285 285 285 286 286 286 287 287 288 289 288
241 242 243 245 247 249 250 252 253 255 257 259 261 263 266 269 271 273 274 275 276 279 280 281 281 282 283 282 283 283 282 284 285 286 285 286 286 286 286 285 286 286 287
244 245 246 247 249 250 250 252 253 255 257 259 261 263 265 268 271 273 274 274 275 277 279 281 281 281 282 282 282 281 282 284 284 285 286 286 286 285 286 286 286 285 285
246 247 248 249 250 251 251 252 254 255 257 259 261 263 265 268 271 273 274 275 275 277 278 280 281 280 280 280 281 281 282 282 283 283 284 285 285 285 284 285 286 285 285
247 248 249 250 250 251 251 251 253 255 257 258 261 264 265 268 271 273 275 275 275 276 277 279 280 280 280 279 280 281 281 281 281 283 284 284 284 284 284 284 284 284 285
248 250 251 251 251 252 252 254 255 257 258 259 262 264 266 268 271 273 274 275 276 276 277 278 279 279 279 280 280 280 280 280 281 282 283 283 283 284 284 284 284 284 284
248 250 251 251 251 253 255 255 257 260 260 260 263 265 266 269 271 273 274 275 276 276 277 277 278 279 279 279 279 279 279 279 281 282 282 282 282 282 283 283 284 284 284
248 248 249 251 253 254 254 255 257 260 262 263 264 265 268 270 271 273 274 276 276 276 277 277 278 279 278 278 278 278 279 280 281 281 281 282 282 282 282 282 283 283 283
248 248 249 250 253 253 253 255 258 260 261 263 264 266 268 270 272 273 275 276 277 277 277 277 278 278 278 277 277 278 278 279 280 280 280 281 281 282 282 283 282 282 282
248 249 250 252 253 254 254 255 258 260 262 263 266 267 268 270 272 273 274 276 277 277 277 277 277 278 277 276 276 276 277 278 279 280 280 281 281 282 282 282 282 281 281
249 250 251 253 254 255 256 257 258 260 262 264 266 268 269 271 273 275 275 275 276 277 277 277 277 278 277 275 275 276 277 278 279 280 280 280 281 281 281 282 281 281 281
250 251 253 253 255 257 257 257 258 260 263 265 267 269 270 273 274 274 275 275 276 276 277 277 276 276 276 275 275 275 276 277 279 280 281 280 281 281 280 281 281 281 281
253 253 254 255 256 258 260 260 259 261 264 266 268 270 272 273 274 275 275 275 276 276 276 275 276 276 276 276 275 275 275 276 278 280 280 281 281 280 280 280 280 280 280
255 255 256 257 259 261 262 263 263 264 265 267 268 270 271 273 274 275 276 276 276 276 276 276 277 278 278 277 277 275 275 276 278 279 279 280 280 280 280 280 280 280 280
258 258 258 259 261 262 263 264 265 266 266 267 269 270 272 274 275 275 276 276 276 276 277 278 279 279 278 279 278 277 277 277 278 278 278 279 279 280 280 280 280 280 280
259 260 260 260 262 263 265 265 265 266 267 267 269 271 273 274 274 274 274 275 275 276 277 278 278 279 279 278 278 278 278 278 277 278 278 279 279 279 280 280 280 281 281
259 261 261 261 263 264 265 267 267 267 268 268 269 271 272 273 273 273 273 274 274 275 276 278 278 278 278 278 278 278 278 278 277 277 278 278 279 279 280 280 281 281 281
261 263 263 264 265 266 267 267 268 269 270 270 269 270 271 272 272 272 272 273 274 275 276 277 278 278 278 279 279 279 279 279 278 278 278 278 278 279 279 280 280 281 282
262 263 264 266 267 267 269 269 270 271 271 271 270 270 271 271 271 272 272 272 273 275 277 278 278 279 279 279 280 281 280 280 278 279 279 279 279 279 279 280 280 281 282
264 264 266 267 268 269 270 271 271 271 271 272 271 271 272 272 272 273 272 273 274 276 277 278 279 280 280 280 280 280 281 281 280 280 280 279 279 279 279 279 280 281 282
267 267 267 269 270 271 271 271 272 272 272 273 273 273 273 273 273 274 274 275 275 276 277 278 279 281 282 281 281 281 281 281 281 281 280 280 280 279 279 280 281 281 281
268 269 269 269 270 272 272 273 274 274 273 273 273 273 274 274 274 275 276 276 277 278 278 279 280 281 281 282 282 282 282 283 283 282 281 280 279 280 281 281 281 281 280
268 268 270 271 272 273 274 274 275 275 275 275 275 274 275 275 275 276 277 277 278 278 278 279 280 281 282 282 283 283 283 283 283 282 281 280 280 280 281 281 281 281 281
268 269 270 271 272 274 275 276 276 277 276 276 277 276 276 277 277 277 277 278 278 278 279 279 280 281 281 282 283 283 283 283 284 282 281 281 281 281 280 281 281 282 281
Height
5806 5809 5811 5813 5815 5816 5818 5819 5820 5821 5821 5822 5822 5823 5823 5822 5822 5822 5821 5821 5820 5820 5819 5818 5817 5816 5815 5814 5813 5812 5811 5809 5808 5807 5806 5805 5803 5802 5801 5800 5799 5797 5796
5800 5802 5805 5807 5809 5810 5812 5813 5814 5815 5816 5816 5817 5817 5817 5817 5817 5816 5816 5815 5815 5814 5813 5812 5811 5810 5809 5808 5807 5806 5805 5804 5803 5801 5800 5799 5798 5797 5795 5794 5793 5792 5790
5793 5796 5798 5800 5802 5804 5805 5807 5808 5809 5810 5810 5811 5811 5811 5811 5811 5810 5810 5809 5809 5808 5807 5806 5805 5804 5803 5802 5801 5800 5799 5798 5796 5795 5794 5793 5792 5790 5789 5788 5787 5785 5784
5787 5789 5791 5793 5795 5797 5799 5800 5801 5802 5803 5804 5804 5805 5805 5805 5804 5804 5803 5803 5802 5802 5801 5800 5799 5798 5797 5796 5794 5793 5792 5791 5790 5789 5788 5786 5785 5784 5782 5781 5780 5779 5777
5780 5782 5784 5786 5788 5790 5792 5793 5795 5796 5796 5797 5798 5798 5798 5798 5798 5797 5797 5796 5796 5795 5794 5793 5792 5791 5790 5789 5788 5787 5786 5785 5783 5782 5781 5780 5778 5777 5775 5774 5773 5771 5770
5773 5775 5777 5779 5781 5783 5784 5786 5788 5788 5789 5790 5791 5791 5791 5791 5791 5790 5790 5789 5788 5788 5787 5786 5785 5784 5783 5782 5781 5780 5779 5777 5776 5775 5773 5772 5771 5769 5768 5766 5765 5763 5762
5765 5768 5770 5771 5773 5775 5777 5779 5780 5781 5782 5783 5783 5783 5783 5783 5783 5783 5782 5781 5781 5780 5779 5778 5777 5776 5775 5774 5773 5772 5771 5769 5768 5767 5766 5764 5763 5761 5760 5758 5757 5755 5753
5758 5760 5762 5764 5766 5768 5769 5771 5772 5774 5774 5775 5775 5775 5776 5776 5775 5775 5774 5774 5773 5772 5771 5770 5769 5768 5767 5766 5765 5764 5762 5761 5760 5759 5757 5756 5754 5753 5751 5750 5748 5746 5744
5750 5752 5754 5756 5758 5760 5762 5763 5764 5766 5766 5767 5767 5768 5768 5768 5767 5767 5766 5765 5764 5764 5763 5762 5760 5759 5758 5757 5756 5755 5754 5752 5751 5750 5748 5746 5745 5744 5742 5740 5739 5737 5735
5742 5744 5746 5747 5749 5751 5753 5755 5756 5757 5758 5758 5758 5759 5759 5759 5759 5758 5757 5756 5755 5754 5753 5752 5751 5750 5749 5748 5747 5745 5744 5743 5741 5740 5739 5737 5735 5734 5732 5731 5729 5727 5725
5734 5736 5737 5739 5741 5743 5744 5746 5747 5748 5749 5749 5750 5750 5749 5749 5749 5749 5748 5747 5745 5744 5743 5742 5741 5739 5738 5737 5736 5735 5734 5733 5732 5730 5729 5727 5726 5724 5722 5721 5719 5717 5715
5725 5727 5728 5730 5732 5734 5735 5737 5738 5739 5739 5740 5740 5740 5740 5739 5739 5738 5738 5737 5735 5734 5732 5731 5730 5729 5728 5727 5726 5725 5724 5723 5721 5720 5718 5717 5715 5713 5711 5710 5708 5706 5704
5717 5718 5720 5721 5723 5725 5726 5727 5728 5729 5730 5730 5730 5730 5730 5729 5728 5728 5727 5726 5725 5723 5721 5720 5719 5718 5717 5716 5715 5714 5713 5712 5711 5709 5708 5706 5704 5702 5700 5698 5696 5695 5693
5707 5709 5710 5712 5713 5715 5716 5717 5718 5719 5719 5720 5720 5720 5719 5718 5718 5717 5716 5715 5714 5713 5711 5710 5708 5707 5706 5705 5704 5703 5702 5701 5700 5698 5696 5694 5693 5691 5689 5687 5685 5683 5681
5698 5699 5700 5702 5703 5704 5706 5707 5708 5708 5709 5709 5709 5708 5708 5707 5706 5705 5704 5703 5703 5702 5701 5699 5697 5696 5694 5693 5692 5691 5690 5689 5688 5686 5684 5682 5680 5678 5677 5675 5673 5671 5670
5688 5689 5690 5691 5692 5694 5695 5696 5696 5697 5697 5697 5697 5697 5696 5695 5694 5693 5692 5691 5690 5689 5688 5688 5686 5684 5682 5681 5680 5679 5678 5677 5675 5673 5671 5670 5668 5666 5664 5663 5661 5659 5658
5678 5679 5679 5680 5681 5682 5683 5684 5685 5685 5685 5685 5685 5684 5684 5683 5682 5681 5680 5679 5678 5677 5676 5675 5674 5672 5670 5669 5667 5666 5664 5663 5662 5660 5658 5656 5655 5653 5651 5650 5648 5647 5645
5667 5668 5669 5669 5670 5671 5672 5672 5672 5672 5672 5672 5672 5672 5671 5670 5669 5668 5667 5666 5665 5664 5663 5662 5661 5659 5657 5656 5654 5652 5651 5649 5648 5646 5644 5642 5641 5639 5638 5636 5635 5633 5631
5656 5657 5657 5658 5659 5659 5659 5660 5660 5660 5659 5659 5659 5658 5657 5656 5655 5654 5653 5652 5651 5650 5649 5648 5647 5645 5644 5641 5640 5638 5636 5635 5633 5631 5630 5628 5627 5625 5623 5622 5620 5618 5616
5645 5646 5646 5646 5647 5647 5647 5647 5647 5646 5646 5645 5645 5644 5643 5642 5641 5640 5640 5639 5637 5636 5635 5634 5633 5631 5629 5627 5625 5624 5622 5621 5619 5617 5615 5613 5612 5610 5608 5606 5605 5603 5601
5634 5634 5635 5635 5634 5634 5634 5634 5633 5633 5632 5631 5630 5629 5628 5627 5627 5626 5625 5625 5623 5622 5621 5619 5618 5617 5615 5613 5611 5609 5607 5606 5604 5602 5600 5598 5596 5595 5593 5591 5589 5587 5585
5623 5623 5623 5622 5622 5621 5621 5620 5620 5619 5618 5617 5616 5615 5614 5613 5613 5612 5611 5610 5609 5608 5606 5605 5604 5602 5600 5598 5596 5594 5592 5590 5590 5588 5584 5583 5580 5579 5577 5575 5573 5570 5568
5611 5611 5610 5610 5610 5609 5608 5608 5606 5606 5605 5604 5603 5601 5601 5600 5598 5598 5597 5596 5595 5593 5591 5590 5589 5587 5585 5583 5581 5579 5576 5574 5573 5570 5568 5568 5565 5563 5560 5558 5556 5554 5551
5599 5599 5598 5598 5597 5597 5596 5595 5594 5592 5591 5590 5589 5588 5587 5586 5584 5583 5582 5582 5580 5579 5577 5575 5574 5572 5570 5567 5565 5563 5560 5558 5557 5554 5551 5551 5549 5547 5545 5542 5539 5537 5534
5587 5587 5586 5585 5585 5584 5583 5582 5581 5580 5578 5577 5575 5574 5573 5572 5570 5569 5568 5567 5566 5564 5561 5560 5558 5556 5554 5551 5549 5546 5544 5542 5541 5539 5535 5533 5532 5530 5529 5527 5524 5520 5518
5574 5574 5574 5573 5572 5571 5570 5569 5568 5567 5565 5564 5562 5560 5559 5557 5556 5554 5552 5551 5550 5548 5546 5544 5543 5540 5538 5535 5533 5530 5528 5526 5524 5523 5520 5517 5515 5513 5513 5512 5508 5505 5501